This is the latest recevied weather packets stored in our database for station/object KD9WYV. If no packets are shown the sender has not sent any weather packets the latest 10 day(s).
| Time | Temp. | Humidity | Pressure | Rain* | Wind** | Luminosity | Snow |
|---|---|---|---|---|---|---|---|
| 1777676917 | 10.56° C | 52% | 1016.6 hPa | 0 mm | - | 126 W/m² | - |
| 1777676616 | 10.56° C | 51% | 1016.7 hPa | 0 mm | - | 84 W/m² | - |
| 1777676313 | 10.56° C | 50% | 1016.7 hPa | 0 mm | - | 151 W/m² | - |
| 1777676010 | 10.56° C | 52% | 1016.9 hPa | 0 mm | - | 171 W/m² | - |
| 1777675706 | 10° C | 54% | 1016.9 hPa | 0 mm | - | 248 W/m² | - |
| 1777675404 | 10° C | 54% | 1016.9 hPa | 0 mm | - | 145 W/m² | - |
| 1777675100 | 10° C | 56% | 1016.9 hPa | 0 mm | - | 112 W/m² | - |
| 1777674796 | 10° C | 56% | 1017 hPa | 0 mm | - | 113 W/m² | - |
| 1777674492 | 10° C | 53% | 1017 hPa | 0 mm | - | 62 W/m² | - |
| 1777674191 | 10.56° C | 52% | 1016.8 hPa | 0 mm | - | 62 W/m² | - |
| 1777673887 | 10.56° C | 52% | 1016.9 hPa | 0 mm | - | 72 W/m² | - |
| 1777673583 | 10.56° C | 52% | 1016.8 hPa | 0 mm | - | 87 W/m² | - |
| 1777673281 | 10.56° C | 53% | 1016.8 hPa | 0 mm | - | 104 W/m² | - |
| 1777672978 | 10.56° C | 55% | 1016.8 hPa | 0 mm | - | 105 W/m² | - |
| 1777672675 | 10.56° C | 53% | 1016.9 hPa | 0 mm | - | 95 W/m² | - |
| 1777672370 | 10.56° C | 55% | 1016.7 hPa | 0 mm | - | 75 W/m² | - |
| 1777672066 | 10.56° C | 54% | 1017 hPa | 0 mm | - | 96 W/m² | - |
| 1777671762 | 10.56° C | 53% | 1016.9 hPa | 0 mm | - | 81 W/m² | - |
| 1777671458 | 10.56° C | 51% | 1016.8 hPa | 0 mm | - | 69 W/m² | - |
| 1777671155 | 10.56° C | 49% | 1016.9 hPa | 0 mm | - | 93 W/m² | - |
| 1777670851 | 11.11° C | 49% | 1016.8 hPa | 0 mm | - | 175 W/m² | - |
| 1777670547 | 11.11° C | 46% | 1016.7 hPa | 0 mm | - | 164 W/m² | - |
| 1777670245 | 11.67° C | 47% | 1016.7 hPa | 0 mm | - | 169 W/m² | - |
| 1777669941 | 11.67° C | 47% | 1016.6 hPa | 0 mm | - | 174 W/m² | - |
| 1777669639 | 11.67° C | 46% | 1016.5 hPa | 0 mm | - | 233 W/m² | - |
* Rain latest hour (hover to see other rain measurements)
** Current wind speed in m/s (hover to see current wind gust speed)